Time,TemperatureF,DewpointF,PressureIn,WindDirection,WindDirectionDegrees,WindSpeedMPH,WindSpeedGustMPH,Humidity,HourlyPrecipIn,Conditions,Clouds,dailyrainin,SoftwareType,DateUTC
2013-02-22 00:00:00,24.4,9.8,30.11,ENE,66,11.0,14.3,53,0.00,,---,0.00,VWS V13.01,2013-02-22 05:00:00,
2013-02-22 00:05:00,24.3,9.6,30.11,NNW,334,4.5,7.8,53,0.00,,---,0.00,VWS V13.01,2013-02-22 05:05:00,
2013-02-22 00:10:00,24.3,9.6,30.11,ENE,70,13.4,13.4,53,0.00,,---,0.00,VWS V13.01,2013-02-22 05:10:00,
2013-02-22 00:15:00,24.1,9.4,30.11,NNE,24,5.8,7.4,53,0.00,,---,0.00,VWS V13.01,2013-02-22 05:15:00,
2013-02-22 00:20:00,24.4,10.2,30.11,East,89,6.7,10.5,54,0.00,,---,0.00,VWS V13.01,2013-02-22 05:20:00,
2013-02-22 00:25:00,24.4,10.2,30.08,NNE,21,8.7,13.0,54,0.00,,---,0.00,VWS V13.01,2013-02-22 05:25:00,
2013-02-22 00:30:00,24.3,10.0,30.08,NNE,26,9.6,12.1,54,0.00,,---,0.00,VWS V13.01,2013-02-22 05:30:00,
2013-02-22 00:35:00,24.4,10.2,30.08,North,351,8.7,8.7,54,0.00,,---,0.00,VWS V13.01,2013-02-22 05:35:00,
2013-02-22 00:40:00,24.3,10.0,30.05,NE,44,7.8,11.0,54,0.00,,---,0.00,VWS V13.01,2013-02-22 05:40:00,
2013-02-22 00:45:00,24.4,10.6,30.05,NE,53,6.3,8.3,55,0.00,,---,0.00,VWS V13.01,2013-02-22 05:45:00,
2013-02-22 00:50:00,24.4,10.6,30.05,ENE,64,13.9,14.8,55,0.00,,---,0.00,VWS V13.01,2013-02-22 05:50:00,
2013-02-22 00:55:00,24.6,10.4,30.08,NE,43,12.1,12.1,54,0.00,,---,0.00,VWS V13.01,2013-02-22 05:55:00,
2013-02-22 01:00:00,24.6,10.4,30.08,NE,37,6.7,12.1,54,0.00,,---,0.00,VWS V13.01,2013-02-22 06:00:00,
2013-02-22 01:05:00,24.6,10.4,30.08,North,7,11.2,17.2,54,0.00,,---,0.00,VWS V13.01,2013-02-22 06:05:00,
2013-02-22 01:10:00,24.4,10.2,30.08,NNE,18,7.4,8.3,54,0.00,,---,0.00,VWS V13.01,2013-02-22 06:10:00,
2013-02-22 01:15:00,24.4,10.2,30.08,NE,51,13.0,13.0,54,0.00,,---,0.00,VWS V13.01,2013-02-22 06:15:00,
2013-02-22 01:20:00,24.4,10.2,30.08,East,89,10.5,11.0,54,0.00,,---,0.00,VWS V13.01,2013-02-22 06:20:00,
2013-02-22 01:25:00,24.4,10.2,30.08,NNE,16,9.6,13.9,54,0.00,,---,0.00,VWS V13.01,2013-02-22 06:25:00,
2013-02-22 01:30:00,24.4,10.2,30.08,North,8,7.8,11.2,54,0.00,,---,0.00,VWS V13.01,2013-02-22 06:30:00,
2013-02-22 01:35:00,24.6,10.8,30.08,East,82,6.9,9.2,55,0.00,,---,0.00,VWS V13.01,2013-02-22 06:35:00,
2013-02-22 01:40:00,24.6,10.8,30.08,ENE,69,6.3,11.2,55,0.00,,---,0.00,VWS V13.01,2013-02-22 06:40:00,
2013-02-22 01:45:00,24.6,10.8,30.08,ESE,104,6.9,12.5,55,0.00,,---,0.00,VWS V13.01,2013-02-22 06:45:00,
2013-02-22 01:50:00,24.4,10.6,30.08,NE,53,9.6,16.3,55,0.00,,---,0.00,VWS V13.01,2013-02-22 06:50:00,
2013-02-22 01:56:00,24.4,10.6,30.05,NE,35,6.3,15.2,55,0.00,,---,0.00,VWS V13.01,2013-02-22 06:56:00,
2013-02-22 02:01:00,24.4,11.0,30.05,ENE,59,4.9,15.2,56,0.00,,---,0.00,VWS V13.01,2013-02-22 07:01:00,
2013-02-22 02:06:00,24.4,11.8,30.05,NE,39,13.0,15.9,58,0.00,,---,0.00,VWS V13.01,2013-02-22 07:06:00,
2013-02-22 02:11:00,24.4,12.9,30.05,ENE,61,8.7,12.1,61,0.00,,---,0.00,VWS V13.01,2013-02-22 07:11:00,
2013-02-22 02:16:00,24.4,13.7,30.05,NNE,28,8.7,13.4,63,0.00,,---,0.00,VWS V13.01,2013-02-22 07:16:00,
2013-02-22 02:21:00,24.6,14.2,30.05,North,0,4.0,8.3,64,0.00,,---,0.00,VWS V13.01,2013-02-22 07:21:00,
2013-02-22 02:26:00,24.6,14.2,30.02,East,80,9.6,12.5,64,0.00,,---,0.00,VWS V13.01,2013-02-22 07:26:00,
2013-02-22 02:31:00,24.8,14.4,30.02,South,172,4.9,10.5,64,0.00,,---,0.00,VWS V13.01,2013-02-22 07:31:00,
2013-02-22 02:36:00,24.8,14.4,30.02,North,351,8.3,8.3,64,0.00,,---,0.00,VWS V13.01,2013-02-22 07:36:00,
2013-02-22 02:41:00,25.0,14.5,29.99,NNW,340,3.6,3.6,64,0.00,,---,0.00,VWS V13.01,2013-02-22 07:41:00,
2013-02-22 02:46:00,25.0,14.5,29.99,NNE,25,4.0,6.7,64,0.00,,---,0.00,VWS V13.01,2013-02-22 07:46:00,
2013-02-22 02:51:00,25.2,14.7,29.99,NNE,26,10.5,10.5,64,0.00,,---,0.00,VWS V13.01,2013-02-22 07:51:00,
2013-02-22 02:56:00,25.3,14.5,29.99,North,7,4.0,4.5,63,0.00,,---,0.00,VWS V13.01,2013-02-22 07:56:00,
2013-02-22 03:01:00,25.3,14.9,29.99,NNE,25,6.9,6.9,64,0.00,,---,0.00,VWS V13.01,2013-02-22 08:01:00,
2013-02-22 03:06:00,25.2,14.4,29.99,North,2,6.7,10.5,63,0.00,,---,0.00,VWS V13.01,2013-02-22 08:06:00,
2013-02-22 03:11:00,25.3,14.9,29.99,ENE,64,7.8,8.3,64,0.00,,---,0.00,VWS V13.01,2013-02-22 08:11:00,
2013-02-22 03:16:00,25.3,14.9,29.99,NNW,347,7.8,9.2,64,0.00,,---,0.00,VWS V13.01,2013-02-22 08:16:00,
2013-02-22 03:21:00,25.3,15.2,29.99,North,7,4.9,7.4,65,0.00,,---,0.00,VWS V13.01,2013-02-22 08:21:00,
2013-02-22 03:26:00,25.2,15.1,29.99,NE,47,4.5,6.7,65,0.00,,---,0.00,VWS V13.01,2013-02-22 08:26:00,
2013-02-22 03:31:00,25.2,15.4,29.99,ENE,60,8.3,11.6,66,0.00,,---,0.00,VWS V13.01,2013-02-22 08:31:00,
2013-02-22 03:36:00,25.2,15.4,29.99,NNE,26,5.4,7.8,66,0.00,,---,0.00,VWS V13.01,2013-02-22 08:36:00,
2013-02-22 03:41:00,25.2,15.8,29.99,NNE,33,6.3,8.3,67,0.00,,---,0.00,VWS V13.01,2013-02-22 08:41:00,
2013-02-22 03:46:00,25.3,16.3,29.99,North,351,5.8,8.7,68,0.00,,---,0.00,VWS V13.01,2013-02-22 08:46:00,
2013-02-22 03:51:00,25.3,16.3,29.99,NNE,21,7.4,8.3,68,0.00,,---,0.00,VWS V13.01,2013-02-22 08:51:00,
2013-02-22 03:56:00,25.7,17.0,29.96,NNE,26,6.9,6.9,69,0.00,,---,0.00,VWS V13.01,2013-02-22 08:56:00,
2013-02-22 04:01:00,25.7,17.0,29.96,North,7,7.4,8.3,69,0.00,,---,0.00,VWS V13.01,2013-02-22 09:01:00,
2013-02-22 04:06:00,25.5,16.8,29.96,North,356,4.5,6.7,69,0.00,,---,0.00,VWS V13.01,2013-02-22 09:06:00,
2013-02-22 04:11:00,25.5,16.8,29.96,NW,320,4.5,5.8,69,0.00,,---,0.00,VWS V13.01,2013-02-22 09:11:00,
2013-02-22 04:16:00,25.5,17.1,29.96,East,80,5.4,8.3,70,0.00,,---,0.00,VWS V13.01,2013-02-22 09:16:00,
2013-02-22 04:21:00,25.7,17.3,29.96,NNE,12,4.5,6.3,70,0.00,,---,0.00,VWS V13.01,2013-02-22 09:21:00,
2013-02-22 04:26:00,25.9,17.5,29.93,NNE,13,3.6,9.2,70,0.00,,---,0.00,VWS V13.01,2013-02-22 09:26:00,
2013-02-22 04:31:00,25.9,17.5,29.93,NE,48,7.8,7.8,70,0.00,,---,0.00,VWS V13.01,2013-02-22 09:31:00,
2013-02-22 04:36:00,25.9,17.5,29.93,North,9,11.2,11.2,70,0.00,,---,0.00,VWS V13.01,2013-02-22 09:36:00,
2013-02-22 04:41:00,26.1,18.0,29.93,ENE,73,6.3,6.9,71,0.00,,---,0.00,VWS V13.01,2013-02-22 09:41:00,
2013-02-22 04:46:00,25.9,17.5,29.93,NE,43,5.8,7.8,70,0.00,,---,0.00,VWS V13.01,2013-02-22 09:46:00,
2013-02-22 04:51:00,26.2,18.1,29.93,ENE,65,6.9,8.7,71,0.00,,---,0.00,VWS V13.01,2013-02-22 09:51:00,
2013-02-22 04:56:00,26.2,18.1,29.93,NNE,15,4.9,6.7,71,0.00,,---,0.00,VWS V13.01,2013-02-22 09:56:00,
2013-02-22 05:01:00,26.2,18.1,29.93,North,2,9.2,9.2,71,0.00,,---,0.00,VWS V13.01,2013-02-22 10:01:00,
2013-02-22 05:06:00,26.2,18.1,29.93,North,8,4.5,11.6,71,0.00,,---,0.00,VWS V13.01,2013-02-22 10:06:00,
2013-02-22 05:11:00,26.4,18.3,29.93,North,7,8.3,8.7,71,0.00,,---,0.00,VWS V13.01,2013-02-22 10:11:00,
2013-02-22 05:16:00,26.4,18.3,29.93,NNE,15,6.7,10.5,71,0.00,,---,0.00,VWS V13.01,2013-02-22 10:16:00,
2013-02-22 05:21:00,26.6,18.5,29.93,NE,54,5.4,6.3,71,0.00,,---,0.00,VWS V13.01,2013-02-22 10:21:00,
2013-02-22 05:26:00,26.8,18.6,29.91,NNE,18,4.9,8.3,71,0.00,,---,0.00,VWS V13.01,2013-02-22 10:26:00,
2013-02-22 05:31:00,27.0,18.8,29.91,North,6,8.7,8.7,71,0.00,,---,0.00,VWS V13.01,2013-02-22 10:31:00,
2013-02-22 05:36:00,27.1,19.0,29.91,North,0,6.9,11.0,71,0.00,,---,0.00,VWS V13.01,2013-02-22 10:36:00,
2013-02-22 05:41:00,27.1,19.0,29.91,NNE,28,4.0,9.2,71,0.00,,---,0.00,VWS V13.01,2013-02-22 10:41:00,
2013-02-22 05:46:00,27.1,18.7,29.91,NE,39,3.6,8.7,70,0.00,,---,0.00,VWS V13.01,2013-02-22 10:46:00,
2013-02-22 05:51:00,27.1,18.7,29.91,NNE,16,6.3,7.8,70,0.00,,---,0.00,VWS V13.01,2013-02-22 10:51:00,
2013-02-22 05:56:00,27.3,18.8,29.91,ENE,72,6.7,7.4,70,0.00,,---,0.00,VWS V13.01,2013-02-22 10:56:00,
2013-02-22 06:02:00,27.5,19.0,29.91,ENE,58,5.8,7.4,70,0.00,,---,0.00,VWS V13.01,2013-02-22 11:02:00,
2013-02-22 06:07:00,27.9,19.0,29.91,NE,50,5.8,6.7,69,0.00,,---,0.00,VWS V13.01,2013-02-22 11:07:00,
2013-02-22 06:12:00,27.5,18.7,29.91,East,86,6.3,10.1,69,0.00,,---,0.00,VWS V13.01,2013-02-22 11:12:00,
2013-02-22 06:17:00,27.3,18.2,29.91,ENE,72,6.3,8.7,68,0.00,,---,0.00,VWS V13.01,2013-02-22 11:17:00,
2013-02-22 06:22:00,27.5,18.3,29.91,NNE,15,4.0,8.3,68,0.00,,---,0.00,VWS V13.01,2013-02-22 11:22:00,
2013-02-22 06:27:00,27.5,18.3,29.91,ENE,67,7.4,10.5,68,0.00,,---,0.00,VWS V13.01,2013-02-22 11:27:00,
2013-02-22 06:32:00,27.5,18.0,29.91,ENE,67,8.7,8.7,67,0.00,,---,0.00,VWS V13.01,2013-02-22 11:32:00,
2013-02-22 06:37:00,27.5,18.3,29.91,ENE,72,9.6,11.0,68,0.00,,---,0.00,VWS V13.01,2013-02-22 11:37:00,
2013-02-22 06:42:00,27.5,18.0,29.91,ENE,62,7.8,10.1,67,0.00,,---,0.00,VWS V13.01,2013-02-22 11:42:00,
2013-02-22 06:47:00,27.3,17.8,29.91,ENE,61,6.3,7.8,67,0.00,,---,0.00,VWS V13.01,2013-02-22 11:47:00,
2013-02-22 06:52:00,27.5,18.3,29.91,ENE,64,10.1,10.1,68,0.00,,---,0.00,VWS V13.01,2013-02-22 11:52:00,
2013-02-22 06:57:00,27.1,17.6,29.91,East,79,11.0,15.9,67,0.00,,---,0.00,VWS V13.01,2013-02-22 11:57:00,
2013-02-22 07:02:00,27.0,17.8,29.91,ENE,71,7.4,7.4,68,0.00,,---,0.00,VWS V13.01,2013-02-22 12:02:00,
2013-02-22 07:07:00,27.0,17.8,29.91,ENE,68,8.3,10.1,68,0.00,,---,0.00,VWS V13.01,2013-02-22 12:07:00,
2013-02-22 07:12:00,27.0,18.2,29.91,ENE,70,6.3,8.7,69,0.00,,---,0.00,VWS V13.01,2013-02-22 12:12:00,
2013-02-22 07:17:00,27.1,18.3,29.91,NNE,27,4.9,10.1,69,0.00,,---,0.00,VWS V13.01,2013-02-22 12:17:00,
2013-02-22 07:22:00,27.0,18.2,29.91,East,79,6.3,9.2,69,0.00,,---,0.00,VWS V13.01,2013-02-22 12:22:00,
2013-02-22 07:27:00,27.0,18.2,29.91,NE,38,9.2,9.2,69,0.00,,---,0.00,VWS V13.01,2013-02-22 12:27:00,
2013-02-22 07:32:00,27.0,18.2,29.91,East,84,7.8,12.1,69,0.00,,---,0.00,VWS V13.01,2013-02-22 12:32:00,
2013-02-22 07:37:00,27.1,18.3,29.91,NE,52,7.4,12.1,69,0.00,,---,0.00,VWS V13.01,2013-02-22 12:37:00,
2013-02-22 07:42:00,27.1,18.3,29.91,NE,47,4.9,6.3,69,0.00,,---,0.00,VWS V13.01,2013-02-22 12:42:00,
2013-02-22 07:47:00,27.3,18.5,29.91,East,94,8.3,8.7,69,0.00,,---,0.00,VWS V13.01,2013-02-22 12:47:00,
2013-02-22 07:52:00,27.3,18.2,29.91,ENE,64,3.6,6.9,68,0.00,,---,0.00,VWS V13.01,2013-02-22 12:52:00,
2013-02-22 07:57:00,27.3,18.2,29.91,ENE,63,10.5,10.5,68,0.00,,---,0.00,VWS V13.01,2013-02-22 12:57:00,
2013-02-22 08:02:00,27.5,18.3,29.91,East,80,8.7,8.7,68,0.00,,---,0.00,VWS V13.01,2013-02-22 13:02:00,
2013-02-22 08:07:00,27.7,18.2,29.91,ENE,74,5.8,8.7,67,0.00,,---,0.00,VWS V13.01,2013-02-22 13:07:00,
2013-02-22 08:12:00,27.7,18.2,29.91,East,96,2.7,10.5,67,0.00,,---,0.00,VWS V13.01,2013-02-22 13:12:00,
2013-02-22 08:17:00,27.9,18.3,29.91,ENE,63,7.8,8.3,67,0.00,,---,0.00,VWS V13.01,2013-02-22 13:17:00,
2013-02-22 08:22:00,28.0,18.2,29.91,East,79,7.8,11.6,66,0.00,,---,0.00,VWS V13.01,2013-02-22 13:22:00,
2013-02-22 08:27:00,28.2,18.3,29.91,NE,49,5.8,6.9,66,0.00,,---,0.00,VWS V13.01,2013-02-22 13:27:00,
2013-02-22 08:32:00,28.4,18.1,29.91,ENE,58,11.6,13.4,65,0.00,,---,0.00,VWS V13.01,2013-02-22 13:32:00,
2013-02-22 08:37:00,28.6,18.0,29.91,NE,39,5.4,11.6,64,0.00,,---,0.00,VWS V13.01,2013-02-22 13:37:00,
2013-02-22 08:42:00,28.8,18.1,29.91,NE,39,4.5,9.2,64,0.00,,---,0.00,VWS V13.01,2013-02-22 13:42:00,
2013-02-22 08:47:00,28.8,17.8,29.91,ENE,76,7.4,9.6,63,0.00,,---,0.00,VWS V13.01,2013-02-22 13:47:00,
2013-02-22 08:52:00,28.8,17.4,29.91,ENE,72,8.7,10.1,62,0.00,,---,0.00,VWS V13.01,2013-02-22 13:52:00,
2013-02-22 08:57:00,28.6,17.2,29.91,ESE,106,5.8,9.6,62,0.00,,---,0.00,VWS V13.01,2013-02-22 13:57:00,
2013-02-22 09:02:00,28.6,16.9,29.91,ENE,65,4.9,6.3,61,0.00,,---,0.00,VWS V13.01,2013-02-22 14:02:00,
2013-02-22 09:07:00,28.6,16.9,29.91,ENE,72,6.9,9.2,61,0.00,,---,0.00,VWS V13.01,2013-02-22 14:07:00,
2013-02-22 09:12:00,28.6,16.9,29.91,ENE,73,5.4,8.3,61,0.00,,---,0.00,VWS V13.01,2013-02-22 14:12:00,
2013-02-22 09:17:00,28.9,17.2,29.91,East,82,7.4,7.4,61,0.00,,---,0.00,VWS V13.01,2013-02-22 14:17:00,
2013-02-22 09:22:00,29.1,17.0,29.91,NNE,14,8.3,11.2,60,0.00,,---,0.00,VWS V13.01,2013-02-22 14:22:00,
2013-02-22 09:27:00,29.3,17.1,29.88,ENE,67,6.9,8.3,60,0.00,,---,0.00,VWS V13.01,2013-02-22 14:27:00,
2013-02-22 09:32:00,29.7,17.5,29.88,ENE,64,7.8,7.8,60,0.00,,---,0.00,VWS V13.01,2013-02-22 14:32:00,
2013-02-22 09:37:00,30.0,17.4,29.88,ENE,76,8.7,8.7,59,0.00,,---,0.00,VWS V13.01,2013-02-22 14:37:00,
2013-02-22 09:42:00,30.4,17.8,29.88,NE,40,4.0,4.0,59,0.00,,---,0.00,VWS V13.01,2013-02-22 14:42:00,
2013-02-22 09:47:00,30.4,17.4,29.88,ENE,65,4.5,5.4,58,0.00,,---,0.00,VWS V13.01,2013-02-22 14:47:00,
2013-02-22 09:52:00,30.4,17.0,29.88,ENE,61,7.4,7.4,57,0.00,,---,0.00,VWS V13.01,2013-02-22 14:52:00,
2013-02-22 09:57:00,30.7,17.7,29.88,NE,49,7.8,9.2,58,0.00,,---,0.00,VWS V13.01,2013-02-22 14:57:00,
2013-02-22 10:02:00,31.1,18.1,29.88,ENE,74,6.9,8.7,58,0.00,,---,0.00,VWS V13.01,2013-02-22 15:02:00,
2013-02-22 10:07:00,31.3,17.8,29.88,NE,51,4.9,6.3,57,0.00,,---,0.00,VWS V13.01,2013-02-22 15:07:00,
2013-02-22 10:12:00,31.6,18.2,29.88,ENE,68,5.8,5.8,57,0.00,,---,0.00,VWS V13.01,2013-02-22 15:12:00,
2013-02-22 10:17:00,32.0,18.5,29.88,NNE,26,5.8,5.8,57,0.00,,---,0.00,VWS V13.01,2013-02-22 15:17:00,
2013-02-22 10:22:00,32.2,18.3,29.88,ENE,75,6.9,7.4,56,0.00,,---,0.00,VWS V13.01,2013-02-22 15:22:00,
2013-02-22 10:27:00,32.4,18.4,29.88,NE,50,7.4,7.4,56,0.00,,---,0.00,VWS V13.01,2013-02-22 15:27:00,
2013-02-22 10:32:00,32.4,18.0,29.88,ENE,74,4.5,6.7,55,0.00,,---,0.00,VWS V13.01,2013-02-22 15:32:00,
2013-02-22 10:37:00,32.5,18.2,29.88,ENE,67,4.9,7.4,55,0.00,,---,0.00,VWS V13.01,2013-02-22 15:37:00,
2013-02-22 10:42:00,32.5,18.2,29.88,East,82,4.0,4.0,55,0.00,,---,0.00,VWS V13.01,2013-02-22 15:42:00,
2013-02-22 10:47:00,32.7,18.4,29.88,East,92,3.1,4.9,55,0.00,,---,0.00,VWS V13.01,2013-02-22 15:47:00,
2013-02-22 10:52:00,32.7,18.4,29.88,East,80,4.9,4.9,55,0.00,,---,0.00,VWS V13.01,2013-02-22 15:52:00,
2013-02-22 10:57:00,33.1,18.7,29.88,ENE,69,8.3,9.2,55,0.00,,---,0.00,VWS V13.01,2013-02-22 15:57:00,
2013-02-22 11:02:00,33.3,18.4,29.88,ENE,69,4.0,5.8,54,0.00,,---,0.00,VWS V13.01,2013-02-22 16:02:00,
2013-02-22 11:07:00,33.4,18.6,29.88,ENE,76,6.7,7.8,54,0.00,,---,0.00,VWS V13.01,2013-02-22 16:07:00,
2013-02-22 11:12:00,33.4,18.6,29.88,East,98,7.8,7.8,54,0.00,,---,0.00,VWS V13.01,2013-02-22 16:12:00,
2013-02-22 11:17:00,33.3,18.4,29.88,ENE,74,7.4,7.8,54,0.00,,---,0.00,VWS V13.01,2013-02-22 16:17:00,
2013-02-22 11:22:00,33.3,18.4,29.88,East,82,5.8,5.8,54,0.00,,---,0.00,VWS V13.01,2013-02-22 16:22:00,
2013-02-22 11:27:00,33.4,18.6,29.88,East,95,6.3,6.7,54,0.00,,---,0.00,VWS V13.01,2013-02-22 16:27:00,
2013-02-22 11:32:00,33.4,19.0,29.88,ENE,71,7.8,7.8,55,0.00,,---,0.00,VWS V13.01,2013-02-22 16:32:00,
2013-02-22 11:37:00,33.6,19.2,29.88,East,92,3.6,4.9,55,0.00,,---,0.00,VWS V13.01,2013-02-22 16:37:00,
2013-02-22 11:42:00,33.8,19.4,29.88,ENE,70,5.4,5.8,55,0.00,,---,0.00,VWS V13.01,2013-02-22 16:42:00,
2013-02-22 11:47:00,34.2,20.1,29.88,East,86,5.4,6.7,56,0.00,,---,0.00,VWS V13.01,2013-02-22 16:47:00,
2013-02-22 11:52:00,34.3,19.9,29.88,NE,55,4.5,6.3,55,0.00,,---,0.00,VWS V13.01,2013-02-22 16:52:00,
2013-02-22 11:57:00,34.5,20.0,29.88,East,86,5.4,6.3,55,0.00,,---,0.00,VWS V13.01,2013-02-22 16:57:00,
2013-02-22 12:02:00,34.5,20.0,29.88,ESE,119,3.1,5.4,55,0.00,,---,0.00,VWS V13.01,2013-02-22 17:02:00,
2013-02-22 12:07:00,34.9,19.9,29.88,East,95,5.4,6.7,54,0.00,,---,0.00,VWS V13.01,2013-02-22 17:07:00,
2013-02-22 12:12:00,34.9,19.9,29.88,East,86,6.3,6.3,54,0.00,,---,0.00,VWS V13.01,2013-02-22 17:12:00,
2013-02-22 12:17:00,34.9,19.9,29.88,East,100,3.1,4.9,54,0.00,,---,0.00,VWS V13.01,2013-02-22 17:17:00,
2013-02-22 12:22:00,34.9,20.4,29.88,NE,49,4.0,6.9,55,0.00,,---,0.00,VWS V13.01,2013-02-22 17:22:00,
2013-02-22 12:27:00,35.1,20.5,29.85,ENE,72,4.9,6.9,55,0.00,,---,0.00,VWS V13.01,2013-02-22 17:27:00,
2013-02-22 12:32:00,35.2,20.7,29.85,NE,55,4.0,6.3,55,0.00,,---,0.00,VWS V13.01,2013-02-22 17:32:00,
2013-02-22 12:37:00,35.4,20.9,29.85,East,84,4.0,7.8,55,0.00,,---,0.00,VWS V13.01,2013-02-22 17:37:00,
2013-02-22 12:42:00,35.6,21.0,29.85,ENE,71,5.4,5.4,55,0.00,,---,0.00,VWS V13.01,2013-02-22 17:42:00,
2013-02-22 12:47:00,36.0,21.4,29.85,ENE,78,5.4,6.3,55,0.00,,---,0.00,VWS V13.01,2013-02-22 17:47:00,
2013-02-22 12:53:00,36.1,21.5,29.85,ENE,59,4.9,7.4,55,0.00,,---,0.00,VWS V13.01,2013-02-22 17:53:00,
2013-02-22 12:58:00,36.3,21.7,29.85,East,88,4.5,6.9,55,0.00,,---,0.00,VWS V13.01,2013-02-22 17:58:00,
2013-02-22 13:03:00,36.3,21.3,29.85,East,86,5.4,6.7,54,0.00,,---,0.00,VWS V13.01,2013-02-22 18:03:00,
2013-02-22 13:08:00,36.3,21.3,29.85,East,83,3.1,5.8,54,0.00,,---,0.00,VWS V13.01,2013-02-22 18:08:00,
2013-02-22 13:13:00,36.5,21.9,29.85,East,92,5.4,5.4,55,0.00,,---,0.00,VWS V13.01,2013-02-22 18:13:00,
2013-02-22 13:18:00,36.7,21.6,29.85,East,86,3.6,4.5,54,0.00,,---,0.00,VWS V13.01,2013-02-22 18:18:00,
2013-02-22 13:23:00,36.7,21.6,29.85,ESE,102,2.7,4.0,54,0.00,,---,0.00,VWS V13.01,2013-02-22 18:23:00,
2013-02-22 13:28:00,37.0,22.4,29.85,ENE,72,3.1,4.9,55,0.00,,---,0.00,VWS V13.01,2013-02-22 18:28:00,
2013-02-22 13:33:00,37.0,22.4,29.85,ENE,73,4.9,5.8,55,0.00,,---,0.00,VWS V13.01,2013-02-22 18:33:00,
2013-02-22 13:38:00,37.2,22.6,29.85,ESE,112,3.6,5.4,55,0.00,,---,0.00,VWS V13.01,2013-02-22 18:38:00,
2013-02-22 13:43:00,37.0,22.4,29.85,East,100,5.8,7.4,55,0.00,,---,0.00,VWS V13.01,2013-02-22 18:43:00,
2013-02-22 13:48:00,36.9,22.2,29.85,SSE,150,4.5,5.4,55,0.00,,---,0.00,VWS V13.01,2013-02-22 18:48:00,
2013-02-22 13:53:00,36.7,22.5,29.85,SE,125,6.3,6.3,56,0.00,,---,0.00,VWS V13.01,2013-02-22 18:53:00,
2013-02-22 13:58:00,36.3,22.6,29.85,SSE,160,3.1,4.0,57,0.00,,---,0.00,VWS V13.01,2013-02-22 18:58:00,
2013-02-22 14:03:00,36.5,22.7,29.85,East,85,4.5,5.8,57,0.00,,---,0.00,VWS V13.01,2013-02-22 19:03:00,
2013-02-22 14:08:00,36.9,23.5,29.85,ESE,106,0.0,3.1,58,0.00,,---,0.00,VWS V13.01,2013-02-22 19:08:00,
2013-02-22 14:13:00,36.9,23.5,29.85,SE,127,5.4,6.7,58,0.00,,---,0.00,VWS V13.01,2013-02-22 19:13:00,
2013-02-22 14:18:00,36.7,23.3,29.85,SSE,158,4.0,4.5,58,0.00,,---,0.00,VWS V13.01,2013-02-22 19:18:00,
2013-02-22 14:23:00,36.9,23.9,29.85,East,99,4.5,4.9,59,0.00,,---,0.00,VWS V13.01,2013-02-22 19:23:00,
2013-02-22 14:28:00,36.9,24.3,29.85,East,98,5.8,6.3,60,0.00,,---,0.00,VWS V13.01,2013-02-22 19:28:00,
2013-02-22 14:33:00,36.9,24.3,29.85,SSE,156,3.6,4.5,60,0.00,,---,0.00,VWS V13.01,2013-02-22 19:33:00,
2013-02-22 14:38:00,36.7,24.1,29.85,SE,145,4.5,5.4,60,0.00,,---,0.00,VWS V13.01,2013-02-22 19:38:00,
2013-02-22 14:43:00,36.9,24.7,29.85,SE,145,4.9,6.7,61,0.00,,---,0.00,VWS V13.01,2013-02-22 19:43:00,
2013-02-22 14:48:00,36.7,24.9,29.85,SSE,150,4.9,4.9,62,0.00,,---,0.00,VWS V13.01,2013-02-22 19:48:00,
2013-02-22 14:53:00,36.7,25.3,29.85,East,101,4.0,5.8,63,0.00,,---,0.00,VWS V13.01,2013-02-22 19:53:00,
2013-02-22 14:58:00,36.7,25.3,29.85,ESE,111,4.0,4.0,63,0.00,,---,0.00,VWS V13.01,2013-02-22 19:58:00,
2013-02-22 15:03:00,36.9,25.8,29.85,SE,131,4.9,7.4,64,0.00,,---,0.00,VWS V13.01,2013-02-22 20:03:00,
2013-02-22 15:08:00,36.9,26.2,29.85,SE,138,2.7,6.3,65,0.00,,---,0.00,VWS V13.01,2013-02-22 20:08:00,
2013-02-22 15:13:00,36.9,26.2,29.85,South,179,5.4,5.8,65,0.00,,---,0.00,VWS V13.01,2013-02-22 20:13:00,
2013-02-22 15:18:00,36.9,26.6,29.85,South,170,4.9,6.3,66,0.00,,---,0.00,VWS V13.01,2013-02-22 20:18:00,
2013-02-22 15:23:00,36.3,26.4,29.85,SSE,168,4.0,5.8,67,0.00,,---,0.00,VWS V13.01,2013-02-22 20:23:00,
2013-02-22 15:28:00,36.3,26.4,29.82,SSE,162,4.0,5.8,67,0.00,,---,0.00,VWS V13.01,2013-02-22 20:28:00,
2013-02-22 15:33:00,36.3,27.1,29.82,East,94,4.9,5.8,69,0.00,,---,0.00,VWS V13.01,2013-02-22 20:33:00,
2013-02-22 15:38:00,36.7,27.5,29.82,ESE,108,3.1,4.5,69,0.00,,---,0.00,VWS V13.01,2013-02-22 20:38:00,
2013-02-22 15:43:00,36.5,27.7,29.82,South,175,4.0,5.4,70,0.00,,---,0.00,VWS V13.01,2013-02-22 20:43:00,
2013-02-22 15:48:00,36.7,27.8,29.82,ESE,110,4.9,6.3,70,0.00,,---,0.00,VWS V13.01,2013-02-22 20:48:00,
2013-02-22 15:53:00,36.7,28.2,29.82,ESE,116,3.1,3.1,71,0.00,,---,0.00,VWS V13.01,2013-02-22 20:53:00,
2013-02-22 15:58:00,36.7,28.2,29.85,SE,138,2.7,2.7,71,0.00,,---,0.00,VWS V13.01,2013-02-22 20:58:00,
2013-02-22 16:03:00,36.3,28.2,29.85,SSW,198,3.1,3.6,72,0.00,,---,0.00,VWS V13.01,2013-02-22 21:03:00,
2013-02-22 16:08:00,36.3,28.2,29.85,South,171,5.8,6.3,72,0.00,,---,0.00,VWS V13.01,2013-02-22 21:08:00,
2013-02-22 16:13:00,36.1,28.3,29.85,SSW,197,8.3,8.3,73,0.00,,---,0.00,VWS V13.01,2013-02-22 21:13:00,
2013-02-22 16:18:00,36.1,29.0,29.85,SSW,208,7.8,7.8,75,0.00,,---,0.00,VWS V13.01,2013-02-22 21:18:00,
2013-02-22 16:23:00,36.1,29.3,29.85,SSW,213,7.4,8.3,76,0.00,,---,0.00,VWS V13.01,2013-02-22 21:23:00,
2013-02-22 16:28:00,36.1,29.6,29.85,SSW,197,4.5,4.9,77,0.00,,---,0.00,VWS V13.01,2013-02-22 21:28:00,
2013-02-22 16:33:00,36.3,30.1,29.85,SSW,195,4.9,7.4,78,0.00,,---,0.00,VWS V13.01,2013-02-22 21:33:00,
2013-02-22 16:38:00,36.3,30.4,29.85,South,190,7.4,10.1,79,0.00,,---,0.00,VWS V13.01,2013-02-22 21:38:00,
2013-02-22 16:43:00,36.3,30.4,29.85,South,181,9.2,9.2,79,0.00,,---,0.00,VWS V13.01,2013-02-22 21:43:00,
2013-02-22 16:48:00,36.1,30.3,29.85,SSW,210,8.7,8.7,79,0.00,,---,0.00,VWS V13.01,2013-02-22 21:48:00,
2013-02-22 16:53:00,36.1,30.6,29.85,South,184,5.4,8.7,80,0.00,,---,0.00,VWS V13.01,2013-02-22 21:53:00,
2013-02-22 16:58:00,36.1,30.6,29.85,South,186,11.2,14.3,80,0.00,,---,0.00,VWS V13.01,2013-02-22 21:58:00,
2013-02-22 17:03:00,36.1,30.9,29.85,South,188,10.1,10.1,81,0.00,,---,0.00,VWS V13.01,2013-02-22 22:03:00,
2013-02-22 17:08:00,36.1,30.9,29.85,South,188,11.2,11.2,81,0.00,,---,0.00,VWS V13.01,2013-02-22 22:08:00,
2013-02-22 17:13:00,36.1,31.2,29.85,SSW,193,6.9,11.0,82,0.00,,---,0.00,VWS V13.01,2013-02-22 22:13:00,
2013-02-22 17:18:00,36.1,31.2,29.85,SSW,200,10.5,12.1,82,0.00,,---,0.00,VWS V13.01,2013-02-22 22:18:00,
2013-02-22 17:23:00,36.1,31.5,29.85,SW,227,11.6,11.6,83,0.00,,---,0.00,VWS V13.01,2013-02-22 22:23:00,
2013-02-22 17:28:00,36.0,31.3,29.85,SSW,197,8.7,11.2,83,0.00,,---,0.00,VWS V13.01,2013-02-22 22:28:00,
2013-02-22 17:33:00,36.0,31.3,29.85,SSE,151,11.0,11.2,83,0.00,,---,0.00,VWS V13.01,2013-02-22 22:33:00,
2013-02-22 17:38:00,36.0,31.6,29.85,SSE,161,11.6,14.3,84,0.00,,---,0.00,VWS V13.01,2013-02-22 22:38:00,
2013-02-22 17:43:00,36.1,31.8,29.85,SW,225,7.8,9.2,84,0.00,,---,0.00,VWS V13.01,2013-02-22 22:43:00,
2013-02-22 17:48:00,36.0,31.6,29.85,South,181,11.6,11.6,84,0.00,,---,0.00,VWS V13.01,2013-02-22 22:48:00,
2013-02-22 17:53:00,36.0,31.6,29.85,SSW,199,7.4,11.2,84,0.00,,---,0.00,VWS V13.01,2013-02-22 22:53:00,
2013-02-22 17:58:00,36.0,31.9,29.85,SSE,159,9.2,11.2,85,0.00,,---,0.00,VWS V13.01,2013-02-22 22:58:00,
2013-02-22 18:03:00,36.0,31.9,29.85,SSE,154,6.3,8.3,85,0.00,,---,0.00,VWS V13.01,2013-02-22 23:03:00,
2013-02-22 18:08:00,36.0,31.9,29.85,South,186,7.8,10.1,85,0.00,,---,0.00,VWS V13.01,2013-02-22 23:08:00,
2013-02-22 18:13:00,35.8,31.7,29.85,SSE,168,6.3,6.7,85,0.00,,---,0.00,VWS V13.01,2013-02-22 23:13:00,
2013-02-22 18:18:00,35.8,31.7,29.85,South,189,7.8,8.7,85,0.00,,---,0.00,VWS V13.01,2013-02-22 23:18:00,
2013-02-22 18:23:00,35.8,31.7,29.85,SSW,201,5.4,10.1,85,0.00,,---,0.00,VWS V13.01,2013-02-22 23:23:00,
2013-02-22 18:28:00,35.8,31.7,29.85,SSW,192,8.3,10.5,85,0.00,,---,0.00,VWS V13.01,2013-02-22 23:28:00,
2013-02-22 18:33:00,36.0,32.2,29.85,South,191,5.8,7.4,86,0.00,,---,0.00,VWS V13.01,2013-02-22 23:33:00,
2013-02-22 18:38:00,36.0,32.2,29.85,SSW,201,8.7,13.0,86,0.00,,---,0.00,VWS V13.01,2013-02-22 23:38:00,
2013-02-22 18:43:00,36.0,32.2,29.85,SSW,209,10.1,11.2,86,0.00,,---,0.00,VWS V13.01,2013-02-22 23:43:00,
2013-02-22 18:48:00,35.8,32.0,29.85,SW,214,11.0,11.0,86,0.00,,---,0.00,VWS V13.01,2013-02-22 23:48:00,
2013-02-22 18:54:00,35.8,31.7,29.88,SSW,200,10.1,13.0,85,0.00,,---,0.00,VWS V13.01,2013-02-22 23:54:00,
2013-02-22 18:59:00,35.6,31.5,29.88,South,177,11.0,12.5,85,0.00,,---,0.00,VWS V13.01,2013-02-22 23:59:00,
2013-02-22 19:04:00,35.4,31.1,29.88,SSW,195,6.7,12.1,84,0.00,,---,0.00,VWS V13.01,2013-02-23 00:04:00,
2013-02-22 19:09:00,35.2,30.6,29.88,South,185,12.1,15.2,83,0.00,,---,0.00,VWS V13.01,2013-02-23 00:09:00,
2013-02-22 19:14:00,35.1,29.8,29.88,SSW,196,12.1,13.4,81,0.00,,---,0.00,VWS V13.01,2013-02-23 00:14:00,
2013-02-22 19:19:00,35.1,29.2,29.88,SSW,196,8.7,9.6,79,0.00,,---,0.00,VWS V13.01,2013-02-23 00:19:00,
2013-02-22 19:24:00,34.9,28.7,29.88,SSW,202,10.1,11.2,78,0.00,,---,0.00,VWS V13.01,2013-02-23 00:24:00,
2013-02-22 19:29:00,34.7,28.5,29.88,South,176,12.5,12.5,78,0.00,,---,0.00,VWS V13.01,2013-02-23 00:29:00,
2013-02-22 19:34:00,34.5,28.1,29.88,WSW,254,6.3,13.0,77,0.00,,---,0.00,VWS V13.01,2013-02-23 00:34:00,
2013-02-22 19:39:00,34.5,27.8,29.88,South,191,9.2,11.6,76,0.00,,---,0.00,VWS V13.01,2013-02-23 00:39:00,
2013-02-22 19:44:00,34.5,27.4,29.88,South,188,10.5,10.5,75,0.00,,---,0.00,VWS V13.01,2013-02-23 00:44:00,
2013-02-22 19:49:00,34.5,27.4,29.88,South,177,9.2,11.2,75,0.00,,---,0.00,VWS V13.01,2013-02-23 00:49:00,
2013-02-22 19:54:00,34.5,27.1,29.88,South,178,13.0,13.0,74,0.00,,---,0.00,VWS V13.01,2013-02-23 00:54:00,
2013-02-22 19:59:00,34.3,26.6,29.88,South,190,8.3,11.0,73,0.00,,---,0.00,VWS V13.01,2013-02-23 00:59:00,
2013-02-22 20:04:00,34.3,26.6,29.88,SSW,210,8.3,8.3,73,0.00,,---,0.00,VWS V13.01,2013-02-23 01:04:00,
2013-02-22 20:09:00,34.3,26.6,29.88,South,180,7.4,8.3,73,0.00,,---,0.00,VWS V13.01,2013-02-23 01:09:00,
2013-02-22 20:14:00,34.3,26.6,29.88,SSW,211,7.4,8.7,73,0.00,,---,0.00,VWS V13.01,2013-02-23 01:14:00,
2013-02-22 20:19:00,34.3,26.6,29.88,SSW,193,5.8,9.2,73,0.00,,---,0.00,VWS V13.01,2013-02-23 01:19:00,
2013-02-22 20:24:00,34.3,26.6,29.88,SSE,163,9.6,9.6,73,0.00,,---,0.00,VWS V13.01,2013-02-23 01:24:00,
2013-02-22 20:29:00,34.3,26.6,29.88,South,185,11.0,12.1,73,0.00,,---,0.00,VWS V13.01,2013-02-23 01:29:00,
2013-02-22 20:34:00,34.3,26.6,29.88,SE,139,10.5,13.9,73,0.00,,---,0.00,VWS V13.01,2013-02-23 01:34:00,
2013-02-22 20:39:00,34.3,26.6,29.88,South,187,7.8,10.1,73,0.00,,---,0.00,VWS V13.01,2013-02-23 01:39:00,
2013-02-22 20:44:00,34.3,26.6,29.88,SSE,166,4.0,7.8,73,0.00,,---,0.00,VWS V13.01,2013-02-23 01:44:00,
2013-02-22 20:49:00,34.3,26.3,29.88,SSW,202,6.3,7.8,72,0.00,,---,0.00,VWS V13.01,2013-02-23 01:49:00,
2013-02-22 20:54:00,34.2,26.1,29.88,South,185,7.8,8.7,72,0.00,,---,0.00,VWS V13.01,2013-02-23 01:54:00,
2013-02-22 20:59:00,34.0,25.9,29.88,SSW,196,8.3,11.2,72,0.00,,---,0.00,VWS V13.01,2013-02-23 01:59:00,
2013-02-22 21:04:00,34.0,25.6,29.88,South,187,11.6,13.4,71,0.00,,---,0.00,VWS V13.01,2013-02-23 02:04:00,
2013-02-22 21:09:00,34.0,25.6,29.88,SSW,205,11.0,13.9,71,0.00,,---,0.00,VWS V13.01,2013-02-23 02:09:00,
2013-02-22 21:14:00,33.8,25.1,29.88,South,178,7.4,11.2,70,0.00,,---,0.00,VWS V13.01,2013-02-23 02:14:00,
2013-02-22 21:19:00,33.8,25.1,29.88,South,175,11.2,11.2,70,0.00,,---,0.00,VWS V13.01,2013-02-23 02:19:00,
2013-02-22 21:24:00,33.8,25.1,29.88,South,188,9.6,10.1,70,0.00,,---,0.00,VWS V13.01,2013-02-23 02:24:00,
2013-02-22 21:29:00,33.6,24.5,29.88,SSW,195,7.4,8.3,69,0.00,,---,0.00,VWS V13.01,2013-02-23 02:29:00,
2013-02-22 21:34:00,33.6,24.5,29.88,ESE,117,7.4,10.5,69,0.00,,---,0.00,VWS V13.01,2013-02-23 02:34:00,
2013-02-22 21:39:00,33.6,24.5,29.88,South,183,8.3,12.5,69,0.00,,---,0.00,VWS V13.01,2013-02-23 02:39:00,
2013-02-22 21:44:00,33.6,24.5,29.88,SSW,193,10.5,11.2,69,0.00,,---,0.00,VWS V13.01,2013-02-23 02:44:00,
2013-02-22 21:49:00,33.4,24.0,29.88,South,191,4.9,9.6,68,0.00,,---,0.00,VWS V13.01,2013-02-23 02:49:00,
2013-02-22 21:54:00,33.3,23.9,29.88,SW,214,8.3,8.7,68,0.00,,---,0.00,VWS V13.01,2013-02-23 02:54:00,
2013-02-22 21:59:00,33.3,23.9,29.88,SW,228,7.8,7.8,68,0.00,,---,0.00,VWS V13.01,2013-02-23 02:59:00,
2013-02-22 22:04:00,33.3,23.9,29.88,SSW,212,6.9,9.6,68,0.00,,---,0.00,VWS V13.01,2013-02-23 03:04:00,
2013-02-22 22:09:00,33.1,23.3,29.91,SSW,206,10.5,15.2,67,0.00,,---,0.00,VWS V13.01,2013-02-23 03:09:00,
2013-02-22 22:14:00,33.1,23.3,29.91,South,187,7.8,10.5,67,0.00,,---,0.00,VWS V13.01,2013-02-23 03:14:00,
2013-02-22 22:19:00,32.9,22.8,29.91,SSW,197,13.0,14.8,66,0.00,,---,0.00,VWS V13.01,2013-02-23 03:19:00,
2013-02-22 22:24:00,32.7,22.3,29.91,ESE,108,14.3,14.3,65,0.00,,---,0.00,VWS V13.01,2013-02-23 03:24:00,
2013-02-22 22:29:00,32.2,20.3,29.91,SSE,165,9.6,13.0,61,0.00,,---,0.00,VWS V13.01,2013-02-23 03:29:00,
2013-02-22 22:34:00,32.0,19.7,29.91,SW,221,14.8,17.2,60,0.00,,---,0.00,VWS V13.01,2013-02-23 03:34:00,
2013-02-22 22:39:00,32.0,19.7,29.91,South,191,9.6,11.6,60,0.00,,---,0.00,VWS V13.01,2013-02-23 03:39:00,
2013-02-22 22:45:00,31.8,19.5,29.91,SSW,207,8.3,15.2,60,0.00,,---,0.00,VWS V13.01,2013-02-23 03:45:00,
2013-02-22 22:50:00,31.6,19.4,29.91,SW,223,11.0,11.6,60,0.00,,---,0.00,VWS V13.01,2013-02-23 03:50:00,
2013-02-22 22:55:00,31.6,19.4,29.91,South,181,7.8,11.2,60,0.00,,---,0.00,VWS V13.01,2013-02-23 03:55:00,
2013-02-22 23:00:00,31.5,19.2,29.91,SSW,200,7.4,8.7,60,0.00,,---,0.00,VWS V13.01,2013-02-23 04:00:00,
2013-02-22 23:05:00,31.5,19.2,29.91,SW,228,10.1,10.1,60,0.00,,---,0.00,VWS V13.01,2013-02-23 04:05:00,
2013-02-22 23:10:00,31.5,19.2,29.91,SW,233,4.0,6.7,60,0.00,,---,0.00,VWS V13.01,2013-02-23 04:10:00,
2013-02-22 23:15:00,31.5,19.6,29.91,SSW,211,11.2,13.4,61,0.00,,---,0.00,VWS V13.01,2013-02-23 04:15:00,
2013-02-22 23:20:00,31.3,19.0,29.91,SW,217,8.3,8.3,60,0.00,,---,0.00,VWS V13.01,2013-02-23 04:20:00,
2013-02-22 23:25:00,31.3,19.0,29.91,SSW,197,8.3,9.6,60,0.00,,---,0.00,VWS V13.01,2013-02-23 04:25:00,
2013-02-22 23:30:00,31.1,18.9,29.91,SSW,205,15.2,15.2,60,0.00,,---,0.00,VWS V13.01,2013-02-23 04:30:00,
2013-02-22 23:35:00,30.9,18.3,29.91,South,184,13.0,13.0,59,0.00,,---,0.00,VWS V13.01,2013-02-23 04:35:00,
2013-02-22 23:40:00,30.6,17.1,29.91,South,191,12.5,12.5,57,0.00,,---,0.00,VWS V13.01,2013-02-23 04:40:00,
2013-02-22 23:45:00,30.6,17.1,29.91,SSE,157,9.6,9.6,57,0.00,,---,0.00,VWS V13.01,2013-02-23 04:45:00,
2013-02-22 23:50:00,30.4,17.0,29.91,South,177,9.6,11.6,57,0.00,,---,0.00,VWS V13.01,2013-02-23 04:50:00,
2013-02-22 23:55:00,30.4,17.0,29.91,South,185,7.8,8.3,57,0.00,,---,0.00,VWS V13.01,2013-02-23 04:55:00,